Tracking 28052 objects as of 22-Sep-2023
HD Live streaming from Space Station
objects crossing your sky now

COSMOS 1823 DEB

Track COSMOS 1823 DEB now!
10-day predictions


NORAD ID: 18802
Int'l Code: 1987-020AN
Perigee: 1,470.5 km
Apogee: 1,637.7 km
Inclination: 73.6 °
Period: 117.0 minutes
Semi major axis: 7925 km
RCS: 0.0581 m2 (small)
Launch date: February 20, 1987
Source: Commonwealth of Independent States (former USSR) (CIS)
Launch site: PLESETSK MISSILE AND SPACE COMPLEX (PKMTR)

Note: This is SATELLITE DEBRIS
Your satellite tracking list
Your tracking list is empty




NASA's NSSDC Master Catalog

Two Line Element Set (TLE):
1 18802U 87020AN  23264.25785536  .00000127  00000-0  11963-2 0  9996
2 18802  73.5932 330.7404 0105486 314.8699 103.3231 12.30545693604040
Source of the keplerian elements: AFSPC